To NAV CANADA Home Page Login to a new session Search on AWWS site Feedback and Comments Disclaimer Vers la page française équivalente Tips FAQ What's new on the site To the Forecasts and Observations / NOTAM section To "File a Flight Plan" website Publications and other links Update of the User's profile FIC Telephone Numbers My Weather Data Folder Route Weather Data Regional Weather Data Local Weather Data To the Forecasts and Observations / NOTAM section
Request Generated 04/01/2015 at 21:16:11 UTC . Weather information available at that time is displayed.

METAR/TAF

BERENS RIVER/MB    

METAR CYBV 012100Z 08008KT 15SM FEW040 BKN090 BKN210 10/00 A2936 RMK
SC1AC4CS1 SNW CVR/NIL/LAST OBS/NEXT 021200Z SLP949 DENSITY ALT 900FT=
METAR CYBV 012000Z 10012KT 15SM SCT040 BKN080 BKN120 09/M00 A2937 RMK
SC3AS3AC1 SLP954=
METAR CYBV 011900Z 10011KT 15SM FEW020 BKN040 BKN080 07/01 A2941 RMK
SC2SC3AS2 SLP967=

CYBV - No TAF is issued for this station

Your time UTC time
Weather data provided by Environment Canada and NAV CANADA